| time (UTC) | temp C | wind direction | speed KPH | gust KPH | rain 1hr cm | rain 24hr cm | rain mn cm | humidity % | barometer mb |
| 20260506033032 | 16 | 205 | 0.0 | 9.7 | 0.00 | 0.00 | 0.00 | 82 | 1012.6 |
| 20260506031530 | 16 | 168 | 4.8 | 11.3 | 0.00 | 0.00 | 0.00 | 83 | 1012.7 |
| 20260506030027 | 17 | 180 | 1.6 | 4.8 | 0.00 | 0.00 | 0.00 | 80 | 1013.0 |
| 20260506024534 | 18 | 121 | 0.0 | 0.0 | 0.00 | 0.00 | 0.00 | 80 | 1012.9 |
| 20260506023024 | 19 | 120 | 0.0 | 0.0 | 0.00 | 0.00 | 0.00 | 80 | 1013.0 |
| 20260506021539 | 19 | 120 | 0.0 | 0.0 | 0.00 | 0.00 | 0.00 | 80 | 1013.2 |
| 20260506020018 | 19 | 120 | 0.0 | 3.2 | 0.00 | 0.00 | 0.00 | 80 | 1013.4 |
| 20260506014522 | 19 | 231 | 0.0 | 0.0 | 0.00 | 0.00 | 0.00 | 80 | 1013.9 |
| 20260506013014 | 19 | 231 | 0.0 | 3.2 | 0.00 | 0.00 | 0.00 | 81 | 1013.8 |
| 20260506011521 | 19 | 231 | 0.0 | 3.2 | 0.00 | 0.00 | 0.00 | 81 | 1014.0 |
| 20260506010013 | 20 | 231 | 0.0 | 0.0 | 0.00 | 0.00 | 0.00 | 81 | 1014.2 |
| 20260506004510 | 20 | 231 | 0.0 | 0.0 | 0.00 | 0.00 | 0.00 | 81 | 1014.2 |
| 20260506003009 | 19 | 231 | 1.6 | 4.8 | 0.00 | 0.00 | 0.00 | 81 | 1014.4 |
| 20260506001512 | 20 | 231 | 3.2 | 4.8 | 0.00 | 0.00 | 0.00 | 81 | 1014.5 |
| 20260506000007 | 20 | 231 | 4.8 | 6.4 | 0.00 | 0.00 | 0.00 | 82 | 1014.4 |
| 20260505234511 | 20 | 231 | 4.8 | 9.7 | 0.00 | 0.00 | 0.00 | 82 | 1014.5 |
| 20260505233005 | 20 | 244 | 4.8 | 6.4 | 0.00 | 0.00 | 0.00 | 82 | 1014.3 |
| 20260505231501 | 20 | 46 | 4.8 | 8.0 | 0.00 | 0.00 | 0.00 | 82 | 1014.4 |
| 20260505230159 | 20 | 50 | 1.6 | 8.0 | 0.00 | 0.00 | 0.00 | 82 | 1014.2 |
| 20260505224559 | 20 | 52 | 0.0 | 8.0 | 0.00 | 0.00 | 0.00 | 81 | 1014.4 |
| 20260505223040 | 20 | 46 | 4.8 | 14.5 | 0.00 | 0.00 | 0.00 | 81 | 1014.5 |
| 20260505221537 | 20 | 19 | 3.2 | 8.0 | 0.00 | 0.00 | 0.00 | 80 | 1014.5 |
| 20260505220040 | 20 | 2 | 3.2 | 6.4 | 0.00 | 0.00 | 0.00 | 79 | 1014.3 |
| 20260505214550 | 20 | 54 | 1.6 | 8.0 | 0.00 | 0.00 | 0.00 | 79 | 1014.3 |
| 20260505213036 | 20 | 255 | 1.6 | 4.8 | 0.00 | 0.00 | 0.00 | 78 | 1014.2 |
| 20260505211542 | 20 | 255 | 0.0 | 4.8 | 0.00 | 0.00 | 0.00 | 78 | 1014.1 |
| 20260505210034 | 20 | 276 | 3.2 | 8.0 | 0.00 | 0.00 | 0.00 | 78 | 1014.0 |
| 20260505204536 | 20 | 93 | 1.6 | 6.4 | 0.00 | 0.00 | 0.00 | 78 | 1014.0 |
| 20260505203049 | 20 | 105 | 4.8 | 14.5 | 0.00 | 0.00 | 0.00 | 78 | 1014.0 |
| 20260505201532 | 20 | 41 | 0.0 | 12.9 | 0.00 | 0.00 | 0.00 | 78 | 1013.9 |
| 20260505200031 | 20 | 63 | 4.8 | 12.9 | 0.00 | 0.00 | 0.00 | 78 | 1013.8 |
| 20260505194531 | 20 | 41 | 4.8 | 12.9 | 0.00 | 0.00 | 0.00 | 78 | 1013.7 |
| 20260505193031 | 20 | 50 | 6.4 | 14.5 | 0.00 | 0.00 | 0.00 | 78 | 1013.6 |
| 20260505191530 | 21 | 51 | 8.0 | 14.5 | 0.00 | 0.00 | 0.00 | 77 | 1013.5 |
| 20260505190029 | 21 | 36 | 6.4 | 14.5 | 0.00 | 0.00 | 0.00 | 77 | 1013.4 |
| 20260505184542 | 21 | 41 | 8.0 | 12.9 | 0.00 | 0.00 | 0.00 | 76 | 1013.5 |
| 20260505183037 | 21 | 19 | 4.8 | 9.7 | 0.00 | 0.00 | 0.00 | 75 | 1013.5 |
| 20260505181528 | 21 | 16 | 4.8 | 12.9 | 0.00 | 0.00 | 0.00 | 76 | 1013.6 |
| 20260505180028 | 21 | 9 | 4.8 | 16.1 | 0.00 | 0.00 | 0.00 | 77 | 1013.5 |
| 20260505174526 | 21 | 46 | 9.7 | 16.1 | 0.00 | 0.00 | 0.00 | 76 | 1013.3 |
| 20260505173026 | 21 | 63 | 6.4 | 12.9 | 0.00 | 0.00 | 0.00 | 76 | 1013.5 |
| 20260505171526 | 21 | 41 | 4.8 | 14.5 | 0.00 | 0.00 | 0.00 | 76 | 1013.5 |
| 20260505170034 | 21 | 56 | 8.0 | 16.1 | 0.00 | 0.00 | 0.00 | 76 | 1013.4 |
| 20260505164525 | 21 | 13 | 8.0 | 16.1 | 0.00 | 0.00 | 0.00 | 76 | 1013.5 |
| 20260505163008 | 22 | 22 | 8.0 | 14.5 | 0.00 | 0.00 | 0.00 | 75 | 1013.6 |
| 20260505161505 | 22 | 358 | 6.4 | 12.9 | 0.00 | 0.00 | 0.00 | 74 | 1013.6 |
| 20260505153002 | 22 | 46 | 3.2 | 16.1 | 0.00 | 0.00 | 0.00 | 73 | 1014.1 |
| 20260505151500 | 22 | 349 | 8.0 | 16.1 | 0.00 | 0.00 | 0.00 | 73 | 1014.1 |
| 20260505150104 | 22 | 17 | 9.7 | 14.5 | 0.00 | 0.00 | 0.00 | 74 | 1014.1 |
| 20260505140118 | 23 | 36 | 8.0 | 17.7 | 0.00 | 0.00 | 0.00 | 72 | 1014.6 |
| 20260505124556 | 22 | 62 | 8.0 | 16.1 | 0.00 | 0.00 | 0.00 | 73 | 1014.7 |
| 20260505123055 | 23 | 10 | 8.0 | 19.3 | 0.00 | 0.00 | 0.00 | 72 | 1014.7 |
| 20260505121550 | 23 | 31 | 8.0 | 12.9 | 0.00 | 0.00 | 0.00 | 74 | 1014.6 |
| 20260505120055 | 22 | 58 | 4.8 | 12.9 | 0.00 | 0.00 | 0.00 | 74 | 1014.8 |
| 20260505114535 | 22 | 20 | 11.3 | 17.7 | 0.00 | 0.00 | 0.00 | 74 | 1014.7 |
| 20260505113040 | 22 | 19 | 6.4 | 14.5 | 0.00 | 0.00 | 0.00 | 75 | 1014.5 |
| 20260505111541 | 20 | 355 | 8.0 | 14.5 | 0.00 | 0.00 | 0.00 | 78 | 1014.7 |
| 20260505101533 | 20 | 349 | 4.8 | 12.9 | 0.00 | 0.00 | 0.00 | 79 | 1014.5 |
| 20260505100024 | 20 | 147 | 0.0 | 4.8 | 0.00 | 0.00 | 0.00 | 80 | 1014.4 |
| 20260505094526 | 19 | 356 | 1.6 | 4.8 | 0.00 | 0.00 | 0.00 | 81 | 1014.4 |
| 20260505093023 | 18 | 321 | 3.2 | 8.0 | 0.00 | 0.00 | 0.00 | 82 | 1014.4 |
| 20260505091519 | 18 | 328 | 4.8 | 8.0 | 0.00 | 0.00 | 0.00 | 82 | 1014.0 |
| 20260505090021 | 18 | 31 | 6.4 | 12.9 | 0.00 | 0.00 | 0.00 | 83 | 1014.0 |
| 20260505084526 | 18 | 196 | 0.0 | 3.2 | 0.00 | 0.00 | 0.00 | 84 | 1013.9 |
| 20260505083018 | 18 | 299 | 0.0 | 4.8 | 0.00 | 0.00 | 0.00 | 83 | 1014.2 |
| 20260505081518 | 18 | 36 | 0.0 | 0.0 | 0.00 | 0.00 | 0.00 | 81 | 1013.8 |
| 20260505080026 | 17 | 126 | 0.0 | 3.2 | 0.00 | 0.00 | 0.00 | 81 | 1013.8 |
| 20260505074517 | 17 | 187 | 0.0 | 3.2 | 0.00 | 0.00 | 0.00 | 82 | 1013.9 |
| 20260505073015 | 16 | 203 | 0.0 | 3.2 | 0.00 | 0.00 | 0.00 | 82 | 1013.7 |
| 20260505071516 | 16 | 206 | 0.0 | 1.6 | 0.00 | 0.00 | 0.00 | 83 | 1013.8 |
| 20260505070022 | 16 | 206 | 1.6 | 3.2 | 0.00 | 0.00 | 0.00 | 81 | 1013.7 |
| 20260505064514 | 16 | 167 | 1.6 | 3.2 | 0.00 | 0.00 | 0.00 | 84 | 1013.5 |
| 20260505063013 | 16 | 195 | 1.6 | 6.4 | 0.00 | 0.00 | 0.00 | 83 | 1013.4 |
| 20260505061515 | 16 | 149 | 0.0 | 4.8 | 0.00 | 0.00 | 0.00 | 83 | 1013.5 |
| 20260505060012 | 16 | 198 | 1.6 | 4.8 | 0.00 | 0.00 | 0.00 | 84 | 1013.4 |
| 20260505054512 | 16 | 162 | 3.2 | 6.4 | 0.00 | 0.00 | 0.00 | 84 | 1013.3 |
| 20260505053014 | 16 | 203 | 1.6 | 4.8 | 0.00 | 0.00 | 0.00 | 84 | 1013.3 |
| 20260505051509 | 16 | 219 | 1.6 | 6.4 | 0.00 | 0.00 | 0.00 | 83 | 1013.4 |
| 20260505041502 | 16 | 196 | 3.2 | 6.4 | 0.00 | 0.00 | 0.00 | 84 | 1013.6 |
| 20260505040002 | 16 | 188 | 3.2 | 6.4 | 0.00 | 0.00 | 0.00 | 83 | 1013.6 |
| 20260505034611 | 16 | 228 | 1.6 | 4.8 | 0.00 | 0.00 | 0.00 | 84 | 1013.6 |